Flag for Mexico Weather past 2 weeks in Merida, Yucatán, Mexico

Now
79 °F

Clear.


Feels Like: 83 °F
Forecast: 76 / 92 °F
Wind: 9 mph from East

Location: Aerop. Internacional Merida - Yuc

Current Time: Oct 2, 2014 at 5:55:29 AM

Latest Report: Oct 2, 2014 at 4:45 AM


Visibility: 6 mi

Pressure: 29.90 "Hg

Humidity: 100%

Dew point: 79 °F

Location of MeridaLocation

Historic Weather in Merida — Graph

°F

Merida temperature yesterday

Maximum temperature yesterday: 91 °F (at 1:45 PM)
Minimum temperature yesterday: 75 °F (at 6:49 AM)
Average temperature yesterday: 83 °F

Past Weeks' High & Low Weather Summary

 TemperatureHumidityPressure
High93 °F (Sep 17, 3:50 PM)100% (Sep 17, 3:51 AM)30.00 "Hg (Sep 17, 3:51 AM)
Low34 °F (Sep 20, 8:12 AM)36% (Sep 17, 3:50 PM)29.72 "Hg (Sep 26, 3:46 PM)
Average80 °F82%29.89 "Hg
* Reported Sep 17 3:51 AM — Oct 2 3:49 AM, Merida, Weather by CustomWeather, © 2014

Note: Actual official high and low records may vary slightly from our data, if they occured in-between our weather recording intervals... More about our weather records

Advertising

Merida weather history for previous 24 hours

 ConditionsComfort  
Time TempWeatherWind HumidityBarometerVisibility
3:49 AM
Oct 2
77 °FClear.7 mph100%29.93 "Hg6 mi
1:45 AM79 °FClear.5 mph100%29.91 "Hg7 mi
12:46 AM79 °FClear.5 mph100%29.94 "Hg6 mi
11:44 PM
Oct 1
81 °FClear.9 mph84%29.92 "Hg6 mi
10:44 PM82 °FPassing clouds.9 mph79%29.92 "Hg7 mi
9:50 PM82 °FThunderstorms. Passing clouds.9 mph79%29.93 "Hg7 mi
7:40 PM88 °FPartly sunny.9 mph62%29.85 "Hg7 mi
5:49 PM90 °FPassing clouds.8 mph55%29.81 "Hg7 mi
4:46 PM91 °FScattered clouds.7 mph49%29.82 "Hg7 mi
2:41 PM91 °FPartly sunny.9 mph52%29.83 "Hg7 mi
1:45 PM91 °FPartly sunny.10 mph56%29.84 "Hg7 mi
12:48 PM90 °FPartly sunny.14 mph59%29.88 "Hg7 mi
11:48 AM90 °FPartly sunny.17 mph59%29.90 "Hg7 mi
7:50 AM79 °FScattered clouds.7 mph100%29.90 "Hg5 mi
7:25 AM77 °FPartly cloudy.7 mph94%29.89 "Hg5 mi
6:49 AM75 °FPassing clouds.7 mph100%29.90 "Hg6 mi
5:47 AM77 °FClear.7 mph100%29.88 "Hg6 mi
Weather by CustomWeather, © 2014

See weather overviewHow to use our weather pages